Regional Weather Roundup
Issued by NWS

Home | Current Version | Previous Version | Text Only | Print | Product List | Glossary Off
Versions: 1 2 3 4 5 6 7 8 9 10 11 12 13 14 15 16 17 18 19 20 21 22 23 24 25 26 27 28 29 30 31 32 33 34 35 36 37 38 39 40 41 42 43 44 45 46 47 48 49 50

000
ASUS45 KABQ 060701
RWRNM
WEATHER ROUNDUP FOR NEW MEXICO
NATIONAL WEATHER SERVICE ALBUQUERQUE NM
1200 AM MST FRI MAR 06 2015

NOTE: "FAIR" MEANS FEW OR NO CLOUDS BELOW 12,000 FEET AGL WITH NO
       SIGNIFICANT WEATHER OR OBSTRUCTIONS TO VISION.

      THIS PRODUCT IS RELEASED AS TWO VERSIONS.  ONE VERSION NEAR
      THE TOP OF THE HOUR CONTAINING PRELIMINARY DATA FROM ALBUQUERQUE
      AND OTHER STATIONS.  A FINAL VERSION WITH ADDITIONAL DATA IS
      ISSUED ABOUT 10 MINUTES AFTER THE HOUR.

NMZ501-503-504-510>518-060800-
NORTHWEST PLATEAU/NORTHCENTRAL MOUNTAINS

CITY           SKY/WX    TMP DP  RH WIND       PRES   REMARKS
FARMINGTON     CLEAR     25  19  78 NE3       30.38S
SANTA FE       CLEAR     30  14  51 N9        30.34F WCI  22
TAOS           PTCLDY    19  12  73 N6        30.39S WCI  11
ANGEL FIRE     FAIR       8   1  71 CALM      30.38R

$$
NMZ402-403-502-505>509-060800-
WESTCENTRAL MOUNTAINS/SOUTHWEST MOUNTAINS

CITY           SKY/WX    TMP DP  RH WIND       PRES   REMARKS
GALLUP         CLEAR     25  18  74 CALM      30.40F
SILVER CITY    CLEAR     27  18  69 N8        30.37F WCI  18

$$
NMZ407-409-411-412-060800-
SOUTHERN DESERTS

CITY           SKY/WX    TMP DP  RH WIND       PRES   REMARKS
DEMING         CLEAR     32  22  66 NE5       30.37S WCI  27
ALAMOGORDO     CLEAR     32  23  69 NW3       30.39S
T OR C         CLEAR     34  18  52 W3        30.36F

$$
NMZ519>523-060800-
CENTRAL VALLEYS/CENTRAL HIGHLANDS

CITY           SKY/WX    TMP DP  RH WIND       PRES   REMARKS
ALBUQUERQUE    CLEAR     36  13  38 E6        30.38S WCI  31
DOUBLE EAGLE   CLEAR     31   8  38 W14       30.38S WCI  20
MORIARTY ARPT  FAIR      25  11  55 NW3       30.36F
CLINES CORNERS CLEAR     29  13  51 NW15      30.30F WCI  18
BELEN          FAIR      30  15  52 E3        30.38S
SOCORRO        NOT AVBL

$$
NMZ524>526-539-540-060800-
SOUTHCENTRAL MOUNTAINS

CITY           SKY/WX    TMP DP  RH WIND       PRES   REMARKS
RUIDOSO        NOT AVBL

$$
NMZ527>531-060800-
NORTHEAST HIGHLANDS/NORTHEAST PLAINS

CITY           SKY/WX    TMP DP  RH WIND       PRES   REMARKS
LAS VEGAS      CLEAR     27  17  66 CALM      30.31S
RATON          CLEAR     22  20  92 NE5       30.30R WCI  16
CLAYTON        CLEAR     30  22  72 W10       30.28F WCI  21

$$
NMZ532>537-060800-
EASTCENTRAL PLAINS

CITY           SKY/WX    TMP DP  RH WIND       PRES   REMARKS
TUCUMCARI      CLEAR     30  23  75 SW14      30.32F WCI  19
CANNON AFB     NOT AVBL
CLOVIS AIRPORT CLEAR     23  18  80 SW6       30.36F WCI  16

$$
NMZ028-029-538-060800-
SOUTHEAST PLAINS

CITY           SKY/WX    TMP DP  RH WIND       PRES   REMARKS
ROSWELL        CLEAR     26  24  92 S5        30.39S WCI  20
ARTESIA        CLEAR     27  27 100 S10       30.40F WCI  17
CARLSBAD       CLEAR     27  24  89 SE7       30.40F WCI  19
HOBBS          CLEAR     25  25 100 SW7       30.42F WCI  17


$$


USA.gov is the U.S. government's official web portal to all federal, state and local government web resources and services.